Date String (YYYY-MM-DD hh:mm:ss) UTC,Instrument flags,Ambient pressure (hPa),Sample flow (lpm),Bypass flow (lpm),Sample temperature (°C),Ambient temperature (°C),ASC tube jacket temperature (°C),LED temperature (°C),Box temperature (°C),Sample RH (%),Span deviation,Mass concentration (μg/m³),Mass concentration (μg/m³),Mass concentration (μg/m³)
DateTimeUTC,F1_M11,P_M11,Q1_M11,Q2_M11,T1_M11,T2_M11,T3_M11,T4_M11,T5_M11,U1_M11,ZSPAN_M11,X0_M11,X2_M11,X1_M11
2021-12-18 21:00:00,,0827.7,4.99,0.00,24.8,23.9,00.0,33.8,26.6,07.5,0000.0,0014.11,0006.91,0006.01
2021-12-18 21:01:00,,0827.7,5.01,0.00,24.8,23.9,00.0,33.8,26.5,07.5,0000.0,0014.08,0006.93,0006.03
2021-12-18 21:02:00,,0827.7,5.00,0.00,24.8,23.9,00.0,33.8,26.5,07.4,0000.0,0015.50,0006.97,0006.04
2021-12-18 21:03:00,,0827.7,5.00,0.00,24.8,23.9,00.0,33.8,26.5,07.5,0000.0,0015.45,0007.00,0006.05
2021-12-18 21:04:00,,0827.7,5.00,0.00,24.8,23.9,00.0,33.8,26.4,07.5,0000.0,0015.31,0007.04,0006.07
2021-12-18 21:05:00,,0827.6,4.99,0.00,24.7,23.9,00.0,33.8,26.4,07.5,0000.0,0015.32,0007.02,0006.05
2021-12-18 21:06:00,,0827.6,5.01,0.00,24.7,23.9,00.0,33.8,26.5,07.6,0000.0,0015.27,0007.00,0006.03
2021-12-18 21:07:00,,0827.6,5.00,0.00,24.7,23.9,00.0,33.8,26.5,07.6,0000.0,0015.20,0006.99,0006.03
2021-12-18 21:08:00,,0827.6,4.99,0.00,24.7,23.9,00.0,33.8,26.5,07.5,0000.0,0014.62,0006.97,0006.02
2021-12-18 21:09:00,,0827.6,5.01,0.00,24.7,23.9,00.0,33.8,26.5,07.5,0000.0,0013.82,0006.96,0006.00
2021-12-18 21:10:00,,0827.5,4.99,0.00,24.7,23.9,00.0,33.7,26.4,07.5,0000.0,0013.60,0006.93,0005.99
2021-12-18 21:11:00,,0827.6,4.99,0.00,24.7,23.9,00.0,33.7,26.4,07.5,0000.0,0013.64,0006.94,0005.97
2021-12-18 21:12:00,,0827.6,5.01,0.00,24.7,23.9,00.0,33.7,26.5,07.5,0000.0,0013.86,0006.89,0005.95
2021-12-18 21:13:00,,0827.5,4.99,0.00,24.7,23.9,00.0,33.7,26.5,07.5,0000.0,0012.93,0006.85,0005.92
2021-12-18 21:14:00,,0827.5,4.99,0.00,24.7,23.9,00.0,33.7,26.5,07.5,0000.0,0012.63,0006.83,0005.91
2021-12-18 21:15:00,,0827.5,5.01,0.00,24.7,23.9,00.0,33.7,26.5,07.5,0000.0,0012.69,0006.76,0005.88
2021-12-18 21:16:00,,0827.6,5.01,0.00,24.7,23.9,00.0,33.7,26.4,07.6,0000.0,0013.41,0006.75,0005.89
2021-12-18 21:17:00,,0827.5,4.98,0.00,24.7,23.9,00.0,33.7,26.4,07.5,0000.0,0014.04,0006.77,0005.91
2021-12-18 21:18:00,,0827.5,5.01,0.00,24.7,23.8,00.0,33.7,26.4,07.5,0000.0,0014.21,0006.79,0005.91
2021-12-18 21:19:00,,0827.5,5.00,0.00,24.6,23.8,00.0,33.7,26.4,07.6,0000.0,0014.82,0006.85,0005.93
2021-12-18 21:20:00,,0827.5,5.01,0.00,24.6,23.8,00.0,33.7,26.4,07.5,0000.0,0015.02,0006.84,0005.95
2021-12-18 21:21:00,,0827.5,4.98,0.00,24.6,23.8,00.0,33.6,26.4,07.5,0000.0,0015.10,0006.82,0005.95
2021-12-18 21:22:00,,0827.5,5.01,0.00,24.6,23.8,00.0,33.6,26.4,07.5,0000.0,0015.81,0006.79,0005.95
2021-12-18 21:23:00,,0827.5,5.00,0.00,24.6,23.8,00.0,33.6,26.4,07.5,0000.0,0015.25,0006.79,0005.97
2021-12-18 21:24:00,,0827.5,5.00,0.00,24.6,23.8,00.0,33.6,26.4,07.6,0000.0,0015.01,0006.79,0005.99
2021-12-18 21:25:00,,0827.5,4.99,0.00,24.6,23.8,00.0,33.6,26.3,07.6,0000.0,0015.06,0006.79,0006.01
2021-12-18 21:26:00,,0827.4,5.01,0.00,24.6,23.8,00.0,33.6,26.4,07.6,0000.0,0015.58,0006.82,0006.02
2021-12-18 21:27:00,,0827.5,4.99,0.00,24.6,23.8,00.0,33.6,26.4,07.6,0000.0,0015.72,0006.85,0006.05
2021-12-18 21:28:00,,0827.5,5.01,0.00,24.6,23.9,00.0,33.6,26.4,07.5,0000.0,0015.15,0006.85,0006.06
2021-12-18 21:29:00,,0827.4,5.00,0.00,24.6,23.9,00.0,33.6,26.4,07.5,0000.0,0015.26,0006.83,0006.06
2021-12-18 21:30:00,,0827.5,4.99,0.00,24.6,23.9,00.0,33.6,26.4,07.5,0000.0,0014.89,0006.79,0006.06
2021-12-18 21:31:00,,0827.4,5.01,0.00,24.6,23.8,00.0,33.6,26.4,07.5,0000.0,0014.69,0006.80,0006.06
2021-12-18 21:32:00,,0827.5,4.98,0.00,24.6,23.9,00.0,33.6,26.4,07.5,0000.0,0014.35,0006.85,0006.07
2021-12-18 21:33:00,,0827.5,5.01,0.00,24.7,23.9,00.0,33.6,26.4,07.5,0000.0,0013.66,0006.91,0006.07
2021-12-18 21:34:00,,0827.5,5.00,0.00,24.7,23.9,00.0,33.6,26.5,07.5,0000.0,0014.06,0006.93,0006.06
2021-12-18 21:35:00,,0827.4,5.00,0.00,24.7,23.9,00.0,33.6,26.5,07.5,0000.0,0014.14,0006.91,0006.04
2021-12-18 21:36:00,,0827.4,4.99,0.00,24.7,23.9,00.0,33.6,26.5,07.5,0000.0,0014.04,0006.90,0006.02
2021-12-18 21:37:00,,0827.5,5.01,0.00,24.7,23.9,00.0,33.6,26.5,07.5,0000.0,0013.20,0006.86,0006.01
2021-12-18 21:38:00,,0827.5,5.00,0.00,24.7,24.0,00.0,33.6,26.6,07.5,0000.0,0012.64,0006.82,0005.99
2021-12-18 21:39:00,,0827.6,5.00,0.00,24.7,24.0,00.0,33.6,26.6,07.4,0000.0,0013.95,0006.82,0005.97
2021-12-18 21:40:00,,0827.5,4.99,0.00,24.7,24.0,00.0,33.6,26.6,07.4,0000.0,0015.93,0006.79,0005.95
2021-12-18 21:41:00,,0827.5,5.02,0.00,24.8,24.0,00.0,33.6,26.6,07.4,0000.0,0016.13,0006.76,0005.93
2021-12-18 21:42:00,,0827.5,4.99,0.00,24.8,24.1,00.0,33.6,26.6,07.4,0000.0,0016.16,0006.76,0005.92
2021-12-18 21:43:00,,0827.4,4.99,0.00,24.8,24.1,00.0,33.7,26.6,07.4,0000.0,0016.60,0006.72,0005.91
2021-12-18 21:44:00,,0827.4,5.00,0.00,24.8,24.1,00.0,33.7,26.6,07.4,0000.0,0016.73,0006.66,0005.89
2021-12-18 21:45:00,,0827.4,5.00,0.00,24.8,24.1,00.0,33.7,26.7,07.4,0000.0,0016.49,0006.63,0005.87
2021-12-18 21:46:00,,0827.4,4.99,0.00,24.8,24.1,00.0,33.7,26.6,07.3,0000.0,0016.15,0006.60,0005.86
2021-12-18 21:47:00,,0827.4,5.00,0.00,24.8,24.1,00.0,33.7,26.6,07.3,0000.0,0016.14,0006.59,0005.85
2021-12-18 21:48:00,,0827.4,5.00,0.00,24.8,24.1,00.0,33.7,26.6,07.3,0000.0,0016.73,0006.59,0005.82
2021-12-18 21:49:00,,0827.4,4.99,0.00,24.9,24.1,00.0,33.7,26.7,07.3,0000.0,0017.14,0006.59,0005.79
2021-12-18 21:50:00,,0827.4,5.01,0.00,24.9,24.1,00.0,33.7,26.7,07.3,0000.0,0015.96,0006.52,0005.76
2021-12-18 21:51:00,,0827.4,5.01,0.00,24.9,24.2,00.0,33.7,26.7,07.3,0000.0,0014.39,0006.52,0005.74
2021-12-18 21:52:00,,0827.4,4.99,0.00,24.9,24.2,00.0,33.7,26.7,07.3,0000.0,0014.22,0006.49,0005.72
2021-12-18 21:53:00,,0827.4,5.01,0.00,24.9,24.2,00.0,33.8,26.8,07.2,0000.0,0014.03,0006.44,0005.69
2021-12-18 21:54:00,,0827.4,5.00,0.00,24.9,24.2,00.0,33.8,26.8,07.2,0000.0,0013.92,0006.41,0005.66
2021-12-18 21:55:00,,0827.4,5.01,0.00,25.0,24.2,00.0,33.8,26.8,07.2,0000.0,0013.76,0006.38,0005.62
2021-12-18 21:56:00,,0827.4,5.00,0.00,25.0,24.2,00.0,33.8,26.8,07.2,0000.0,0013.61,0006.37,0005.61
2021-12-18 21:57:00,,0827.4,4.99,0.00,25.0,24.2,00.0,33.8,26.8,07.2,0000.0,0013.65,0006.38,0005.60
2021-12-18 21:58:00,,0827.3,5.01,0.00,25.0,24.3,00.0,33.8,26.8,07.2,0000.0,0013.58,0006.35,0005.58
2021-12-18 21:59:00,,0827.4,5.00,0.00,25.0,24.3,00.0,33.8,26.8,07.2,0000.0,0013.54,0006.35,0005.58
